Tulsa International Airport
KTUL : now visible

Airfield :











YOU CAN JOIN US ON...

 
LOGIN :

Register | Disclaimer

   EN    FR    IT 

 









Legend :    VFR   Marginal VFR   IFR   Intensive IFR   Very Intensive IFR
Visi :
Ceiling :
>= 8 km
>= 3000ft
5 to 8 km
1000 to 3000 ft
1500m to 5 km
500 to 1000 ft
800 to 1500m
200 to 500 ft
< 800m
< 200 ft
Symbols :   Thunderstorms  Fog  Heavy snow  Heavy precipitations  Wind > 20 kt






- Airport Elevation : 677 ft
- IATA code : TUL


KTUL - Tulsa International

CURRENT METAR :
  • 260453Z 06003KT 10SM FEW250 12/10 A2998 RMK AO2 SLP149 T01170100

EXPIRED METARs :
  • 260353Z 06004KT 10SM FEW250 12/10 A2999 RMK AO2 SLP155 T01220100
  • 260253Z 07005KT 10SM BKN250 13/10 A3000 RMK AO2 SLP155 T01330100 50000

TAF KTUL
Valid from the 26 at 06:00 until the 27 at 06:00 UTC


260525Z 2606/2706 06004KT P6SM SKC WS005/12030KT
FM261200 12010KT P6SM OVC050 WS020/17040KT
FM261500 14015G23KT P6SM OVC025
FM262100 14017G27KT P6SM BKN050
KZKC FIR / North America



MET'MAP, your aeronautical weather chart ! - Copyright ORBIFLY December 2007 - Disclaimer

ORBIFLY MET'MAP TEAM :

Programming & Development : Alexandra Zaïnal
Concept & original design : Baudouin d'Aumeries
Assistance for programming : Marc-Olivier Méhu
Technical & hardware support : Manuel Goepfert

Contact : metmap@orbifly.com




SOURCES & CREDITS :

   NOAA       Earth
Advisory